EW9007 Weather Reports


time (UTC)temp
C
wind
direction
speed
KPH
gust
KPH
rain 1hr
cm
rain 24hr
cm
rain mn
cm
humidity
%
barometer
mb
20260502130505 2 22 0.0 3.2 0.00 0.00 0.00 79 1022.0
20260502123507 1 22 0.0 1.6 0.00 0.00 0.00 80 1021.8
20260502123011 1 22 0.0 1.6 0.00 0.00 0.00 80 1021.7
20260502122507 1 22 0.0 1.6 0.00 0.00 0.00 80 1021.7
20260502122010 1 22 0.0 0.0 0.00 0.00 0.00 80 1021.7
20260502121508 1 22 0.0 0.0 0.00 0.00 0.00 80 1021.7
20260502121008 1 22 0.0 0.0 0.00 0.00 0.00 80 1021.8
20260502120507 1 22 0.0 0.0 0.00 0.00 0.00 80 1021.6
20260502115508 1 22 0.0 0.0 0.00 0.00 0.00 79 1021.6
20260502115004 1 22 0.0 0.0 0.00 0.00 0.00 79 1021.6
20260502114509 1 22 0.0 0.0 0.00 0.00 0.00 79 1021.6
20260502114003 1 22 0.0 0.0 0.00 0.00 0.00 78 1021.5
20260502113504 1 22 0.0 0.0 0.00 0.00 0.00 78 1021.6
20260502113012 1 22 0.0 0.0 0.00 0.00 0.00 77 1021.5
20260502112506 1 22 0.0 0.0 0.00 0.00 0.00 77 1021.5
20260502112005 1 22 0.0 0.0 0.00 0.00 0.00 77 1021.4
20260502111522 1 22 0.0 0.0 0.00 0.00 0.00 76 1021.5
20260502111008 1 22 0.0 0.0 0.00 0.00 0.00 76 1021.4
20260502110511 1 22 0.0 0.0 0.00 0.00 0.00 75 1021.4
20260502110015 1 22 0.0 0.0 0.00 0.00 0.00 75 1021.4
20260502105508 1 22 0.0 0.0 0.00 0.00 0.00 74 1021.4
20260502105010 1 22 0.0 0.0 0.00 0.00 0.00 74 1021.4
20260502104506 1 22 0.0 0.0 0.00 0.00 0.00 74 1021.4
20260502104005 1 22 0.0 0.0 0.00 0.00 0.00 73 1021.4
20260502103510 1 22 0.0 0.0 0.00 0.00 0.00 72 1021.4
20260502103013 1 22 0.0 0.0 0.00 0.00 0.00 72 1021.4
20260502102511 1 22 0.0 0.0 0.00 0.00 0.00 72 1021.3
20260502102005 1 22 0.0 0.0 0.00 0.00 0.00 72 1021.1
20260502101505 1 22 0.0 0.0 0.00 0.00 0.00 71 1021.1
20260502101003 1 22 0.0 0.0 0.00 0.00 0.00 70 1021.1
20260502100504 1 22 0.0 0.0 0.00 0.00 0.00 70 1021.1
20260502091516 2 22 0.0 0.0 0.00 0.00 0.00 65 1020.9
20260502091006 2 22 0.0 0.0 0.00 0.00 0.00 65 1020.9
20260502090507 2 22 0.0 0.0 0.00 0.00 0.00 64 1020.8
20260502071506 3 22 0.0 0.0 0.00 0.00 0.00 60 1020.8
20260502071003 3 22 0.0 0.0 0.00 0.00 0.00 60 1020.8
20260502070504 3 22 0.0 0.0 0.00 0.00 0.00 60 1020.9
20260502070037 4 22 0.0 0.0 0.00 0.00 0.00 59 1020.9
20260502065504 4 22 0.0 0.0 0.00 0.00 0.00 58 1020.9
20260502065013 4 22 0.0 0.0 0.00 0.00 0.00 58 1020.8
20260502064523 4 22 0.0 0.0 0.00 0.00 0.00 58 1020.8
20260502064003 4 22 0.0 0.0 0.00 0.00 0.00 58 1020.9
20260502063506 4 22 0.0 0.0 0.00 0.00 0.00 59 1020.9
20260502063021 4 22 0.0 0.0 0.00 0.00 0.00 59 1020.9
20260502062508 4 22 0.0 0.0 0.00 0.00 0.00 57 1020.9
20260502062004 5 22 0.0 0.0 0.00 0.00 0.00 57 1020.9
20260502061517 5 22 0.0 0.0 0.00 0.00 0.00 58 1020.9
20260502061008 5 22 0.0 0.0 0.00 0.00 0.00 58 1020.9
20260502060512 5 22 0.0 0.0 0.00 0.00 0.00 57 1020.8
20260502060027 5 22 0.0 0.0 0.00 0.00 0.00 55 1020.8
20260502055503 5 22 0.0 0.0 0.00 0.00 0.00 53 1020.8
20260502055003 5 22 0.0 0.0 0.00 0.00 0.00 53 1020.7
20260502054510 5 22 0.0 0.0 0.00 0.00 0.00 53 1020.7
20260502054003 5 22 0.0 0.0 0.00 0.00 0.00 53 1020.6
20260502053510 5 22 0.0 0.0 0.00 0.00 0.00 51 1020.6
20260502053016 5 22 0.0 0.0 0.00 0.00 0.00 51 1020.6
20260502052509 5 22 0.0 0.0 0.00 0.00 0.00 51 1020.6
20260502052007 5 22 0.0 0.0 0.00 0.00 0.00 51 1020.6
20260502051519 5 22 0.0 0.0 0.00 0.00 0.00 50 1020.6
20260502051006 6 22 0.0 0.0 0.00 0.00 0.00 49 1020.6
20260502050505 6 22 0.0 0.0 0.00 0.00 0.00 49 1020.5
20260502050022 6 22 0.0 0.0 0.00 0.00 0.00 48 1020.4
20260502045510 6 22 0.0 0.0 0.00 0.00 0.00 47 1020.4
20260502045005 6 22 0.0 0.0 0.00 0.00 0.00 47 1020.4
20260502044516 6 22 0.0 0.0 0.00 0.00 0.00 47 1020.3
20260502044003 6 22 0.0 0.0 0.00 0.00 0.00 46 1020.3
20260502043505 6 22 0.0 0.0 0.00 0.00 0.00 46 1020.4
20260502043010 6 22 0.0 0.0 0.00 0.00 0.00 45 1020.4
20260502042505 6 22 0.0 0.0 0.00 0.00 0.00 45 1020.5
20260502042008 6 22 0.0 0.0 0.00 0.00 0.00 45 1020.6
20260502041521 6 22 0.0 0.0 0.00 0.00 0.00 46 1020.5
20260502041005 6 22 0.0 0.0 0.00 0.00 0.00 45 1020.4
20260502040509 6 22 0.0 0.0 0.00 0.00 0.00 44 1020.4
20260502040043 7 22 0.0 0.0 0.00 0.00 0.00 44 1020.4
20260502035506 7 22 0.0 0.0 0.00 0.00 0.00 43 1020.3
20260502035007 7 22 0.0 1.6 0.00 0.00 0.00 43 1020.3
20260502034526 7 22 0.0 1.6 0.00 0.00 0.00 43 1020.3
20260502034009 7 22 0.0 1.6 0.00 0.00 0.00 43 1020.3
20260502033505 7 22 0.0 3.2 0.00 0.00 0.00 43 1020.3
20260502033030 7 22 0.0 4.8 0.00 0.00 0.00 43 1020.3
20260502032504 7 22 0.0 4.8 0.00 0.00 0.00 43 1020.3
20260502032005 8 22 0.0 3.2 0.00 0.00 0.00 42 1020.2
20260502031516 8 22 0.0 3.2 0.00 0.00 0.00 41 1020.1
20260502031006 8 22 0.0 3.2 0.00 0.00 0.00 41 1020.1
20260502030515 8 22 0.0 3.2 0.00 0.00 0.00 42 1020.1
20260502030015 8 22 0.0 4.8 0.00 0.00 0.00 40 1020.1
20260502025506 8 22 1.6 6.4 0.00 0.00 0.00 39 1020.0
20260502025012 8 22 1.6 6.4 0.00 0.00 0.00 39 1020.0
20260502024511 8 22 1.6 4.8 0.00 0.00 0.00 39 1019.9
20260502024006 8 22 1.6 6.4 0.00 0.00 0.00 39 1019.8
20260502023507 8 22 1.6 9.7 0.00 0.00 0.00 38 1019.8
20260502023020 8 21 3.2 9.7 0.00 0.00 0.00 37 1019.7
20260502022503 8 24 3.2 8.0 0.00 0.00 0.00 38 1019.7
20260502022005 8 35 1.6 8.0 0.00 0.00 0.00 39 1019.6
20260502021505 8 15 3.2 6.4 0.00 0.00 0.00 38 1019.5
20260502021008 9 13 1.6 6.4 0.00 0.00 0.00 38 1019.4
20260502020502 9 5 1.6 8.0 0.00 0.00 0.00 37 1019.4
20260502020003 9 5 1.6 8.0 0.00 0.00 0.00 36 1019.3
20260502015506 9 5 4.8 14.5 0.00 0.00 0.00 35 1019.2
20260502015004 10 19 4.8 14.5 0.00 0.00 0.00 35 1019.2
20260502014504 10 11 3.2 12.9 0.00 0.00 0.00 34 1019.0
20260502014002 10 5 4.8 12.9 0.00 0.00 0.00 33 1018.9
20260502013502 10 17 4.8 12.9 0.00 0.00 0.00 33 1018.9
20260502013003 10 346 6.4 17.7 0.00 0.00 0.00 32 1018.8
20260502012503 11 352 9.7 17.7 0.00 0.00 0.00 31 1018.7
20260502012004 11 335 8.0 19.3 0.00 0.00 0.00 31 1018.7
20260502011507 11 333 12.9 22.5 0.00 0.00 0.00 30 1018.7
20260502011003 11 349 6.4 22.5 0.00 0.00 0.00 30 1018.7
20260502010503 11 340 9.7 20.9 0.00 0.00 0.00 30 1018.6
20260502010014 11 344 8.0 20.9 0.00 0.00 0.00 29 1018.6
20260502005508 11 325 6.4 24.1 0.00 0.00 0.00 29 1018.5
20260502005002 12 346 11.3 24.1 0.00 0.00 0.00 28 1018.5
20260502004507 12 323 6.4 25.7 0.00 0.00 0.00 28 1018.4
20260502004006 12 342 11.3 25.7 0.00 0.00 0.00 27 1018.4
20260502003502 12 19 11.3 20.9 0.00 0.00 0.00 27 1018.3
20260502003007 12 346 11.3 30.6 0.00 0.00 0.00 27 1018.3
20260502002503 12 340 14.5 30.6 0.00 0.00 0.00 27 1018.3
20260502002003 12 333 9.7 25.7 0.00 0.00 0.00 28 1018.3
20260502001503 12 330 9.7 24.1 0.00 0.00 0.00 27 1018.3
20260502001006 12 337 12.9 32.2 0.00 0.00 0.00 28 1018.3
20260502000506 12 324 11.3 32.2 0.00 0.00 0.00 27 1018.3
20260502000005 12 36 9.7 27.4 0.00 0.00 0.00 27 1018.2
20260501235504 13 336 14.5 25.7 0.00 0.00 0.00 27 1018.2
20260501235004 13 13 9.7 25.7 0.00 0.00 0.00 28 1018.2
20260501234515 13 335 11.3 24.1 0.00 0.00 0.00 27 1018.1
20260501234003 13 340 8.0 20.9 0.00 0.00 0.00 26 1018.1
20260501233503 13 340 9.7 22.5 0.00 0.00 0.00 27 1018.2
20260501233013 13 342 12.9 35.4 0.00 0.00 0.00 27 1018.2
20260501232504 13 18 11.3 35.4 0.00 0.00 0.00 27 1018.2
20260501232002 13 360 17.7 29.0 0.00 0.00 0.00 27 1018.1
20260501231504 13 317 11.3 24.1 0.00 0.00 0.00 26 1018.2
20260501231004 13 324 11.3 25.7 0.00 0.00 0.00 26 1018.2
20260501230503 13 309 14.5 25.7 0.00 0.00 0.00 26 1018.1
20260501230004 13 343 11.3 24.1 0.00 0.00 0.00 27 1018.0
20260501225503 13 291 11.3 24.1 0.00 0.00 0.00 26 1018.1
20260501225005 13 346 14.5 24.1 0.00 0.00 0.00 26 1018.0
20260501224507 13 352 14.5 24.1 0.00 0.00 0.00 27 1018.0
20260501224004 13 324 11.3 27.4 0.00 0.00 0.00 27 1018.1
20260501223503 13 342 11.3 32.2 0.00 0.00 0.00 27 1018.1
20260501223004 13 5 20.9 32.2 0.00 0.00 0.00 26 1018.1
20260501222503 13 5 6.4 22.5 0.00 0.00 0.00 26 1018.0
20260501222007 13 309 9.7 32.2 0.00 0.00 0.00 27 1018.0
20260501221516 13 345 12.9 32.2 0.00 0.00 0.00 27 1018.0
20260501221004 13 325 19.3 30.6 0.00 0.00 0.00 25 1018.0
20260501220503 13 350 9.7 22.5 0.00 0.00 0.00 26 1018.0
20260501220004 13 343 9.7 24.1 0.00 0.00 0.00 26 1018.0
20260501215507 13 314 11.3 33.8 0.00 0.00 0.00 26 1018.1
20260501215004 13 297 14.5 33.8 0.00 0.00 0.00 26 1018.0
20260501214513 13 324 9.7 27.4 0.00 0.00 0.00 25 1018.0
20260501214003 13 349 9.7 33.8 0.00 0.00 0.00 25 1018.1
20260501213504 13 40 16.1 33.8 0.00 0.00 0.00 26 1018.1
20260501213006 13 316 11.3 22.5 0.00 0.00 0.00 26 1018.1
20260501212506 13 40 8.0 33.8 0.00 0.00 0.00 28 1018.1
20260501212004 13 305 12.9 33.8 0.00 0.00 0.00 27 1018.2
20260501211506 13 9 19.3 32.2 0.00 0.00 0.00 27 1018.1
20260501211004 13 340 9.7 24.1 0.00 0.00 0.00 27 1018.3
20260501210506 13 319 8.0 33.8 0.00 0.00 0.00 27 1018.1
20260501210003 13 330 17.7 33.8 0.00 0.00 0.00 29 1018.2
20260501205503 13 348 12.9 25.7 0.00 0.00 0.00 29 1018.2
20260501205004 13 348 8.0 25.7 0.00 0.00 0.00 29 1018.3
20260501204506 13 352 16.1 25.7 0.00 0.00 0.00 28 1018.3
20260501204003 13 304 11.3 24.1 0.00 0.00 0.00 29 1018.3
20260501203503 13 297 11.3 24.1 0.00 0.00 0.00 30 1018.4
20260501203020 13 323 9.7 24.1 0.00 0.00 0.00 29 1018.4
20260501202506 13 349 11.3 35.4 0.00 0.00 0.00 30 1018.5
20260501202004 13 349 20.9 35.4 0.00 0.00 0.00 31 1018.4
20260501201512 13 325 11.3 25.7 0.00 0.00 0.00 30 1018.4
20260501201007 13 331 14.5 25.7 0.00 0.00 0.00 31 1018.5
20260501200504 13 298 11.3 24.1 0.00 0.00 0.00 30 1018.6
20260501200009 13 302 11.3 25.7 0.00 0.00 0.00 31 1018.5
20260501195509 13 329 11.3 25.7 0.00 0.00 0.00 35 1018.6
20260501195010 13 336 9.7 30.6 0.00 0.00 0.00 31 1018.6
20260501194506 13 294 17.7 30.6 0.00 0.00 0.00 31 1018.6
20260501194004 13 324 11.3 27.4 0.00 0.00 0.00 32 1018.6
20260501193503 13 13 14.5 27.4 0.00 0.00 0.00 34 1018.6
20260501193006 13 342 11.3 27.4 0.00 0.00 0.00 34 1018.6
20260501192504 13 327 12.9 27.4 0.00 0.00 0.00 34 1018.5
20260501192004 13 313 8.0 25.7 0.00 0.00 0.00 33 1018.5
20260501191510 13 336 14.5 25.7 0.00 0.00 0.00 36 1018.5
20260501191003 13 339 9.7 29.0 0.00 0.00 0.00 37 1018.4
20260501190505 13 319 11.3 29.0 0.00 0.00 0.00 37 1018.4
20260501190020 13 15 14.5 29.0 0.00 0.00 0.00 38 1018.4
20260501185504 13 327 14.5 27.4 0.00 0.00 0.00 36 1018.5
20260501185007 13 300 12.9 27.4 0.00 0.00 0.00 35 1018.6
20260501184516 13 17 14.5 27.4 0.00 0.00 0.00 39 1018.5
20260501184007 13 24 16.1 25.7 0.00 0.00 0.00 40 1018.5
20260501183507 13 329 9.7 33.8 0.00 0.00 0.00 39 1018.6
20260501183012 12 338 16.1 33.8 0.00 0.00 0.00 39 1018.7
20260501182505 12 294 14.5 30.6 0.00 0.00 0.00 36 1018.7
20260501182004 12 360 14.5 35.4 0.00 0.00 0.00 38 1018.7
20260501181506 13 311 17.7 35.4 0.00 0.00 0.00 37 1018.8
20260501181005 12 337 11.3 32.2 0.00 0.00 0.00 39 1018.7
20260501180514 12 294 9.7 25.7 0.00 0.00 0.00 36 1018.8
20260501180009 12 336 11.3 22.5 0.00 0.00 0.00 38 1018.8
20260501175505 12 310 8.0 30.6 0.00 0.00 0.00 42 1018.8
20260501175008 12 349 14.5 30.6 0.00 0.00 0.00 40 1018.8
20260501174518 12 327 12.9 29.0 0.00 0.00 0.00 40 1018.8
20260501174008 12 324 12.9 30.6 0.00 0.00 0.00 43 1018.9
20260501173504 12 331 11.3 32.2 0.00 0.00 0.00 44 1018.9
20260501173005 12 319 17.7 33.8 0.00 0.00 0.00 44 1018.9
20260501172504 12 348 12.9 33.8 0.00 0.00 0.00 44 1018.8
20260501172006 12 331 16.1 25.7 0.00 0.00 0.00 46 1018.9
20260501171503 11 5 11.3 22.5 0.00 0.00 0.00 48 1019.0
20260501171006 11 309 11.3 25.7 0.00 0.00 0.00 47 1019.0
20260501170504 11 352 11.3 29.0 0.00 0.00 0.00 49 1019.1
20260501170012 11 331 11.3 29.0 0.00 0.00 0.00 47 1019.0
20260501165503 11 311 11.3 25.7 0.00 0.00 0.00 49 1019.1
20260501165005 11 313 11.3 25.7 0.00 0.00 0.00 47 1018.9
20260501164514 11 329 9.7 24.1 0.00 0.00 0.00 51 1019.0
20260501164006 11 37 9.7 29.0 0.00 0.00 0.00 51 1019.0
20260501163502 11 352 17.7 29.0 0.00 0.00 0.00 51 1019.0
20260501163009 11 332 12.9 25.7 0.00 0.00 0.00 51 1018.9
20260501162503 11 333 14.5 30.6 0.00 0.00 0.00 51 1018.9
20260501162002 11 315 14.5 30.6 0.00 0.00 0.00 54 1018.8
20260501161504 11 338 8.0 32.2 0.00 0.00 0.00 53 1018.8
20260501161006 11 299 17.7 32.2 0.00 0.00 0.00 54 1018.9
20260501160504 11 331 14.5 30.6 0.00 0.00 0.00 53 1018.8
20260501160005 10 63 9.7 30.6 0.00 0.00 0.00 54 1018.9
20260501155505 10 286 12.9 20.9 0.00 0.00 0.00 54 1018.8
20260501155003 10 352 8.0 20.9 0.00 0.00 0.00 54 1018.8
20260501154503 10 317 8.0 20.9 0.00 0.00 0.00 56 1018.7
20260501154003 10 301 11.3 20.9 0.00 0.00 0.00 54 1018.8
20260501153506 10 331 12.9 24.1 0.00 0.00 0.00 53 1018.8
20260501153016 10 333 8.0 24.1 0.00 0.00 0.00 55 1018.8
20260501152503 10 337 11.3 19.3 0.00 0.00 0.00 54 1018.7
20260501152006 10 315 11.3 20.9 0.00 0.00 0.00 53 1018.7
20260501151515 10 317 8.0 20.9 0.00 0.00 0.00 53 1018.7
20260501151003 10 308 8.0 25.7 0.00 0.00 0.00 54 1018.6
20260501150503 9 5 8.0 25.7 0.00 0.00 0.00 54 1018.5
20260501150006 9 332 6.4 19.3 0.00 0.00 0.00 56 1018.5
20260501145504 9 326 6.4 19.3 0.00 0.00 0.00 56 1018.4
20260501145004 8 360 8.0 19.3 0.00 0.00 0.00 56 1018.4
20260501144508 8 306 11.3 20.9 0.00 0.00 0.00 57 1018.4
20260501144003 8 334 8.0 20.9 0.00 0.00 0.00 57 1018.4
20260501143506 8 316 12.9 20.9 0.00 0.00 0.00 57 1018.4
20260501143009 8 331 8.0 16.1 0.00 0.00 0.00 58 1018.5